Location: Agendoh
(31.0664°N, 8.9343°W)
Time: 09:50:54
(UTC+00:00)

Lacrosse 5 - Pass Details

Date: 29 June 2022
Orbit: 714 x 724 km, 57.0° (Epoch: 09 March)

Event Time Altitude Azimuth Distance (km) Brightness Sun altitude
Rises 23:05:37 0° 326° (NW) 3,136 6.3 -31.3°
Reaches altitude 10° 23:08:03 10° 330° (NNW) 2,212 5.3 -31.5°
Enters shadow 23:11:35 42° 353° (N) 1,027 3.0 -31.8°
